User: anonymous   Login
Location: ???? ??????? ????
(31.2176°N, 31.6797°E)
Time: 15:53:21
(UTC+00:00)
Language:

Cosmos 2227 Rocket - Orbit

View from above orbital plane
View from above orbital plane
View from above satellite
View from above satellite

Ground track
Ground track

The orbit data is extracted from the following two-line orbital elements,

1 22285U 92093B   21017.27973020  .00000063  00000-0  57181-4 0  9998
2 22285  71.0231 343.9252 0006625 282.9106  77.1277 14.15055731447862
Epoch (UTC): 17 January 2021 06:42:48
Eccentricity: 0.0006625
inclination: 71.0231°
perigee height: 837 km
apogee height: 847 km
right ascension of ascending node: 343.9252°
argument of perigee: 282.9106°
revolutions per day: 14.15055731
mean anomaly at epoch: 77.1277°
orbit number at epoch: 44786

The dashed part of the orbit path shows where the satellite is in the earth's shadow,  

DLR